Year,Month,Day,Hour,Minute,Value (Times are PST for temperature in C)
2018,06,02,10,17,13.30
2018,06,02,10,18,13.30
2018,06,02,10,19,13.30
2018,06,02,10,20,13.30
2018,06,02,10,21,13.20
2018,06,02,10,22,13.20
2018,06,02,10,23,13.20
2018,06,02,10,24,13.30
2018,06,02,10,25,13.30
2018,06,02,10,26,13.30
2018,06,02,10,27,13.30
2018,06,02,10,28,13.30
2018,06,02,10,29,13.30
2018,06,02,10,30,13.30
2018,06,02,10,31,13.30
2018,06,02,10,32,13.30
2018,06,02,10,33,13.40
2018,06,02,10,34,13.40
2018,06,02,10,35,13.40
2018,06,02,10,36,13.40
2018,06,02,10,37,13.40
2018,06,02,10,38,13.50
2018,06,02,10,39,13.50
2018,06,02,10,40,13.50
2018,06,02,10,41,13.50
2018,06,02,10,42,13.50
2018,06,02,10,43,13.50
2018,06,02,10,44,13.50
2018,06,02,10,45,13.50
2018,06,02,10,46,13.50
2018,06,02,10,47,13.60
2018,06,02,10,48,13.60
2018,06,02,10,49,13.60
2018,06,02,10,50,13.60
2018,06,02,10,51,13.60
2018,06,02,10,52,13.60
2018,06,02,10,53,13.60
2018,06,02,10,54,13.50
2018,06,02,10,55,13.60
2018,06,02,10,56,13.60
2018,06,02,10,57,13.50
2018,06,02,10,58,13.50
2018,06,02,10,59,13.40
2018,06,02,11,00,13.40
2018,06,02,11,01,13.40
2018,06,02,11,02,13.40
2018,06,02,11,03,13.40
2018,06,02,11,04,13.40
2018,06,02,11,05,13.40
2018,06,02,11,06,13.40
2018,06,02,11,07,13.40
2018,06,02,11,08,13.40
2018,06,02,11,09,13.40
2018,06,02,11,10,13.40
2018,06,02,11,11,13.50
2018,06,02,11,12,13.50
2018,06,02,11,13,13.50
2018,06,02,11,14,13.50
2018,06,02,11,15,13.50
2018,06,02,11,16,13.60
2018,06,02,11,17,13.60
2018,06,02,11,18,13.60
2018,06,02,11,19,13.60
2018,06,02,11,20,13.70
2018,06,02,11,21,13.70
2018,06,02,11,22,13.70
2018,06,02,11,23,13.70
2018,06,02,11,24,13.70
2018,06,02,11,25,13.70
2018,06,02,11,26,13.70
2018,06,02,11,27,13.70
2018,06,02,11,28,13.70
2018,06,02,11,29,13.70
2018,06,02,11,30,13.70
2018,06,02,11,31,13.70
2018,06,02,11,32,13.60
2018,06,02,11,33,13.60
2018,06,02,11,34,13.70
2018,06,02,11,35,13.70
2018,06,02,11,36,13.70
2018,06,02,11,37,13.70
2018,06,02,11,38,13.70
2018,06,02,11,39,13.60
2018,06,02,11,40,13.60
2018,06,02,11,41,13.60
2018,06,02,11,42,13.70
2018,06,02,11,43,13.70
2018,06,02,11,44,13.70
2018,06,02,11,45,13.70
2018,06,02,11,46,13.70
2018,06,02,11,47,13.70
2018,06,02,11,48,13.70
2018,06,02,11,49,13.70
2018,06,02,11,50,13.70
2018,06,02,11,51,13.70
2018,06,02,11,52,13.70
2018,06,02,11,53,13.80
2018,06,02,11,54,13.80
2018,06,02,11,55,13.80
2018,06,02,11,56,13.70
2018,06,02,11,57,13.70
2018,06,02,11,58,13.70
2018,06,02,11,59,13.70
2018,06,02,12,00,13.70
2018,06,02,12,01,13.70
2018,06,02,12,02,13.60
2018,06,02,12,03,13.60
2018,06,02,12,04,13.60
2018,06,02,12,05,13.60
2018,06,02,12,06,13.60
2018,06,02,12,07,13.50
2018,06,02,12,08,13.50
2018,06,02,12,09,13.40
2018,06,02,12,10,13.40
2018,06,02,12,11,13.50
2018,06,02,12,12,13.50
2018,06,02,12,13,13.40
2018,06,02,12,14,13.40
2018,06,02,12,15,13.40
2018,06,02,12,16,13.40
2018,06,02,12,17,13.40
2018,06,02,12,18,13.40
2018,06,02,12,19,13.30
2018,06,02,12,20,13.30
2018,06,02,12,21,13.30
2018,06,02,12,22,13.40
2018,06,02,12,23,13.40
2018,06,02,12,24,13.40
2018,06,02,12,25,13.50
2018,06,02,12,26,13.50
2018,06,02,12,27,13.50
2018,06,02,12,28,13.40
2018,06,02,12,29,13.40
2018,06,02,12,30,13.40
2018,06,02,12,31,13.50
2018,06,02,12,32,13.50
2018,06,02,12,33,13.50
2018,06,02,12,34,13.50
2018,06,02,12,35,13.50
2018,06,02,12,36,13.60
2018,06,02,12,37,13.60
2018,06,02,12,38,13.60
2018,06,02,12,39,13.60
2018,06,02,12,40,13.60
2018,06,02,12,41,13.60
2018,06,02,12,42,13.70
2018,06,02,12,43,13.70
2018,06,02,12,44,13.70
2018,06,02,12,45,13.70
2018,06,02,12,46,13.70
2018,06,02,12,47,13.70
2018,06,02,12,48,13.70
2018,06,02,12,49,13.70
2018,06,02,12,50,13.70
2018,06,02,12,51,13.70
2018,06,02,12,52,13.70
2018,06,02,12,53,13.70
2018,06,02,12,54,13.70
2018,06,02,12,55,13.70
2018,06,02,12,56,13.80
2018,06,02,12,57,13.80
2018,06,02,12,58,13.90
2018,06,02,12,59,13.90
2018,06,02,13,00,13.90
2018,06,02,13,01,13.90
2018,06,02,13,02,14.00
2018,06,02,13,03,14.00
2018,06,02,13,04,14.10
2018,06,02,13,05,14.10
2018,06,02,13,06,14.10
2018,06,02,13,07,14.10
2018,06,02,13,08,14.10
2018,06,02,13,09,14.20
2018,06,02,13,10,14.20
2018,06,02,13,11,14.20
2018,06,02,13,12,14.20
2018,06,02,13,13,14.30
2018,06,02,13,14,14.30
2018,06,02,13,15,14.40
2018,06,02,13,16,14.50
2018,06,02,13,17,14.60
2018,06,02,13,18,14.60
2018,06,02,13,19,14.60
2018,06,02,13,20,14.60
2018,06,02,13,21,14.60
2018,06,02,13,22,14.60
2018,06,02,13,23,14.60
2018,06,02,13,24,14.60
2018,06,02,13,25,14.60
2018,06,02,13,26,14.60
2018,06,02,13,27,14.60
2018,06,02,13,28,14.60
2018,06,02,13,29,14.50
2018,06,02,13,30,14.60
2018,06,02,13,31,14.60
2018,06,02,13,32,14.60
2018,06,02,13,33,14.60
2018,06,02,13,34,14.50
2018,06,02,13,35,14.50
2018,06,02,13,36,14.50
2018,06,02,13,37,14.50
2018,06,02,13,38,14.60
2018,06,02,13,39,14.60
2018,06,02,13,40,14.60
2018,06,02,13,41,14.60
2018,06,02,13,42,14.60
2018,06,02,13,43,14.50
2018,06,02,13,44,14.40
2018,06,02,13,45,14.40
2018,06,02,13,46,14.50
2018,06,02,13,47,14.50
2018,06,02,13,48,14.60
2018,06,02,13,49,14.70
2018,06,02,13,50,14.70
2018,06,02,13,51,14.80
2018,06,02,13,52,14.80
2018,06,02,13,53,14.90
2018,06,02,13,54,14.90
2018,06,02,13,55,14.90
2018,06,02,13,56,14.90
2018,06,02,13,57,14.90
2018,06,02,13,58,14.90
2018,06,02,13,59,14.90
2018,06,02,14,00,15.00
2018,06,02,14,01,15.00
2018,06,02,14,02,15.00
2018,06,02,14,03,15.00
2018,06,02,14,04,15.00
2018,06,02,14,05,15.00
2018,06,02,14,06,15.00
2018,06,02,14,07,15.00
2018,06,02,14,08,14.80
2018,06,02,14,09,14.70
2018,06,02,14,10,14.60
2018,06,02,14,11,14.60
2018,06,02,14,12,14.50
2018,06,02,14,13,14.50
2018,06,02,14,14,14.40
2018,06,02,14,15,14.40
2018,06,02,14,16,14.40
2018,06,02,14,17,14.50
2018,06,02,14,18,14.50
2018,06,02,14,19,14.60
2018,06,02,14,20,14.60
2018,06,02,14,21,14.60
2018,06,02,14,22,14.50
2018,06,02,14,23,14.50
2018,06,02,14,24,14.50
2018,06,02,14,25,14.60
2018,06,02,14,26,14.60
2018,06,02,14,27,14.60
2018,06,02,14,28,14.60
2018,06,02,14,29,14.50
2018,06,02,14,30,14.50
2018,06,02,14,31,14.50
2018,06,02,14,32,14.40
2018,06,02,14,33,14.40
2018,06,02,14,34,14.40
2018,06,02,14,35,14.50
2018,06,02,14,36,14.50
2018,06,02,14,37,14.50
2018,06,02,14,38,14.50
2018,06,02,14,39,14.50
2018,06,02,14,40,14.40
2018,06,02,14,41,14.50
2018,06,02,14,42,14.50
2018,06,02,14,43,14.50
2018,06,02,14,44,14.60
2018,06,02,14,45,14.60
2018,06,02,14,46,14.70
2018,06,02,14,47,14.70
2018,06,02,14,48,14.70
2018,06,02,14,49,14.70
2018,06,02,14,50,14.70
2018,06,02,14,51,14.70
2018,06,02,14,52,14.70
2018,06,02,14,53,14.70
2018,06,02,14,54,14.70
2018,06,02,14,55,14.70
2018,06,02,14,56,14.80
2018,06,02,14,57,14.80
2018,06,02,14,58,14.80
2018,06,02,14,59,14.90
2018,06,02,15,00,14.90
2018,06,02,15,01,14.90
2018,06,02,15,02,14.90
2018,06,02,15,03,15.00
2018,06,02,15,04,15.00
2018,06,02,15,05,15.10
2018,06,02,15,06,15.10
2018,06,02,15,07,15.10
2018,06,02,15,08,15.00
2018,06,02,15,09,14.90
2018,06,02,15,10,14.80
2018,06,02,15,11,14.80
2018,06,02,15,12,14.80
2018,06,02,15,13,14.90
2018,06,02,15,14,14.90
2018,06,02,15,15,14.90
2018,06,02,15,16,14.90
2018,06,02,15,17,14.90
2018,06,02,15,18,14.90
2018,06,02,15,19,14.90
2018,06,02,15,20,14.90
2018,06,02,15,21,14.80
2018,06,02,15,22,14.70
2018,06,02,15,23,14.70
2018,06,02,15,24,14.60
2018,06,02,15,25,14.60
2018,06,02,15,26,14.60
2018,06,02,15,27,14.60
2018,06,02,15,28,14.70
2018,06,02,15,29,14.70
2018,06,02,15,30,14.80
2018,06,02,15,31,14.80
2018,06,02,15,32,14.80
2018,06,02,15,33,14.70
2018,06,02,15,34,14.70
2018,06,02,15,35,14.70
2018,06,02,15,36,14.70
2018,06,02,15,37,14.70
2018,06,02,15,38,14.70
2018,06,02,15,39,14.70
2018,06,02,15,40,14.70
2018,06,02,15,41,14.70
2018,06,02,15,42,14.80
2018,06,02,15,43,14.80
2018,06,02,15,44,14.80
2018,06,02,15,45,14.80
2018,06,02,15,46,14.90
2018,06,02,15,47,14.90
2018,06,02,15,48,14.90
2018,06,02,15,49,15.00
2018,06,02,15,50,15.00
2018,06,02,15,51,15.00
2018,06,02,15,52,15.00
2018,06,02,15,53,15.10
2018,06,02,15,54,15.10
2018,06,02,15,55,15.10
2018,06,02,15,56,15.10
2018,06,02,15,57,15.20
2018,06,02,15,58,15.20
2018,06,02,15,59,15.20
2018,06,02,16,00,15.30
2018,06,02,16,01,15.30
2018,06,02,16,02,15.20
2018,06,02,16,03,15.20
2018,06,02,16,04,15.20
2018,06,02,16,05,15.30
2018,06,02,16,06,15.40
2018,06,02,16,07,15.40
2018,06,02,16,08,15.50
2018,06,02,16,09,15.50
2018,06,02,16,10,15.60
2018,06,02,16,11,15.60
2018,06,02,16,12,15.60
2018,06,02,16,13,15.60
2018,06,02,16,14,15.60
2018,06,02,16,15,15.60
2018,06,02,16,16,15.70
2018,06,02,16,17,15.60
2018,06,02,16,18,15.60
2018,06,02,16,19,15.60
2018,06,02,16,20,15.60
2018,06,02,16,21,15.60
2018,06,02,16,22,15.60
2018,06,02,16,23,15.60
2018,06,02,16,24,15.60
2018,06,02,16,25,15.40
2018,06,02,16,26,15.20
2018,06,02,16,27,15.00
2018,06,02,16,28,15.00
2018,06,02,16,29,15.00
2018,06,02,16,30,14.90
2018,06,02,16,31,14.90
2018,06,02,16,32,14.90
2018,06,02,16,33,14.90
2018,06,02,16,34,14.90
2018,06,02,16,35,14.90
2018,06,02,16,36,14.90
2018,06,02,16,37,15.00
2018,06,02,16,38,15.10
2018,06,02,16,39,15.10
2018,06,02,16,40,15.20
2018,06,02,16,41,15.30
2018,06,02,16,42,15.30
2018,06,02,16,43,15.40
2018,06,02,16,44,15.40
2018,06,02,16,45,15.50
2018,06,02,16,46,15.50
2018,06,02,16,47,15.60
2018,06,02,16,48,15.60
2018,06,02,16,49,15.60
2018,06,02,16,50,15.60
2018,06,02,16,51,15.60
2018,06,02,16,52,15.50
2018,06,02,16,53,15.50
2018,06,02,16,54,15.40
2018,06,02,16,55,15.40
2018,06,02,16,56,15.30
2018,06,02,16,57,15.20
2018,06,02,16,58,15.20
2018,06,02,16,59,15.20
2018,06,02,17,00,15.20
2018,06,02,17,01,15.20
2018,06,02,17,02,15.30
2018,06,02,17,03,15.30
2018,06,02,17,04,15.40
2018,06,02,17,05,15.40
2018,06,02,17,06,15.50
2018,06,02,17,07,15.50
2018,06,02,17,08,15.60
2018,06,02,17,09,15.70
2018,06,02,17,10,15.70
2018,06,02,17,11,15.70
2018,06,02,17,12,15.70
2018,06,02,17,13,15.80
2018,06,02,17,14,15.80
2018,06,02,17,15,15.80
2018,06,02,17,16,15.80
2018,06,02,17,17,15.90
2018,06,02,17,18,15.90
2018,06,02,17,19,15.90
2018,06,02,17,20,16.00
2018,06,02,17,21,16.00
2018,06,02,17,22,16.00
2018,06,02,17,23,16.00
2018,06,02,17,24,16.00
2018,06,02,17,25,16.10
2018,06,02,17,26,16.10
2018,06,02,17,27,16.10
2018,06,02,17,28,16.10
2018,06,02,17,29,16.00
2018,06,02,17,30,15.90
2018,06,02,17,31,15.90
2018,06,02,17,32,15.90
2018,06,02,17,33,15.90
2018,06,02,17,34,15.90
2018,06,02,17,35,15.80
2018,06,02,17,36,15.80
2018,06,02,17,37,15.80
2018,06,02,17,38,15.80
2018,06,02,17,39,15.70
2018,06,02,17,40,15.70
2018,06,02,17,41,15.70
2018,06,02,17,42,15.70
2018,06,02,17,43,15.70
2018,06,02,17,44,15.70
2018,06,02,17,45,15.70
2018,06,02,17,46,15.70
2018,06,02,17,47,15.70
2018,06,02,17,48,15.60
2018,06,02,17,49,15.60
2018,06,02,17,50,15.60
2018,06,02,17,51,15.50
2018,06,02,17,52,15.50
2018,06,02,17,53,15.40
2018,06,02,17,54,15.40
2018,06,02,17,55,15.30
2018,06,02,17,56,15.20
2018,06,02,17,57,15.10
2018,06,02,17,58,15.00
2018,06,02,17,59,14.90
2018,06,02,18,00,14.90
2018,06,02,18,01,14.90
2018,06,02,18,02,14.90
2018,06,02,18,03,14.90
2018,06,02,18,04,14.80
2018,06,02,18,05,14.80
2018,06,02,18,06,14.80
2018,06,02,18,07,14.80
2018,06,02,18,08,14.80
2018,06,02,18,09,14.80
2018,06,02,18,10,14.80
2018,06,02,18,11,14.80
2018,06,02,18,12,14.80
2018,06,02,18,13,14.70
2018,06,02,18,14,14.70
2018,06,02,18,15,14.70
2018,06,02,18,16,14.70
2018,06,02,18,17,14.70
2018,06,02,18,18,14.70
2018,06,02,18,19,14.70
2018,06,02,18,20,14.70
2018,06,02,18,21,14.70
2018,06,02,18,22,14.60
2018,06,02,18,23,14.70
2018,06,02,18,24,14.60
2018,06,02,18,25,14.60
2018,06,02,18,26,14.60
2018,06,02,18,27,14.60
2018,06,02,18,28,14.60
2018,06,02,18,29,14.60
2018,06,02,18,30,14.60
2018,06,02,18,31,14.70
2018,06,02,18,32,14.70
2018,06,02,18,33,14.70
2018,06,02,18,34,14.70
2018,06,02,18,35,14.70
2018,06,02,18,36,14.70
2018,06,02,18,37,14.70
2018,06,02,18,38,14.70
2018,06,02,18,39,14.70
2018,06,02,18,40,14.70
2018,06,02,18,41,14.70
2018,06,02,18,42,14.70
2018,06,02,18,43,14.70
2018,06,02,18,44,14.70
2018,06,02,18,45,14.70
2018,06,02,18,46,14.70
2018,06,02,18,47,14.60
2018,06,02,18,48,14.60
2018,06,02,18,49,14.60
2018,06,02,18,50,14.50
2018,06,02,18,51,14.50
2018,06,02,18,52,14.50
2018,06,02,18,53,14.50
2018,06,02,18,54,14.40
2018,06,02,18,55,14.40
2018,06,02,18,56,14.40
2018,06,02,18,57,14.40
2018,06,02,18,58,14.40
2018,06,02,18,59,14.40
2018,06,02,19,00,14.30
2018,06,02,19,01,14.30
2018,06,02,19,02,14.30
2018,06,02,19,03,14.30
2018,06,02,19,04,14.20
2018,06,02,19,05,14.10
2018,06,02,19,06,14.10
2018,06,02,19,07,14.10
2018,06,02,19,08,14.00
2018,06,02,19,09,14.00
2018,06,02,19,10,13.90
2018,06,02,19,11,13.90
2018,06,02,19,12,13.80
2018,06,02,19,13,13.80
2018,06,02,19,14,13.80
2018,06,02,19,15,13.70
2018,06,02,19,16,13.70
2018,06,02,19,17,13.70
2018,06,02,19,18,13.70
2018,06,02,19,19,13.70
2018,06,02,19,20,13.70
2018,06,02,19,21,13.70
2018,06,02,19,22,13.70
2018,06,02,19,23,13.70
2018,06,02,19,24,13.70
2018,06,02,19,25,13.70
2018,06,02,19,26,13.60
2018,06,02,19,27,13.60
2018,06,02,19,28,13.60
2018,06,02,19,29,13.60
2018,06,02,19,30,13.60
2018,06,02,19,31,13.60
2018,06,02,19,32,13.60
2018,06,02,19,33,13.60
2018,06,02,19,34,13.60
2018,06,02,19,35,13.60
2018,06,02,19,36,13.60
2018,06,02,19,37,13.60
2018,06,02,19,38,13.60
2018,06,02,19,39,13.50
2018,06,02,19,40,13.60
2018,06,02,19,41,13.60
2018,06,02,19,42,13.50
2018,06,02,19,43,13.50
2018,06,02,19,44,13.50
2018,06,02,19,45,13.50
2018,06,02,19,46,13.50
2018,06,02,19,47,13.40
2018,06,02,19,48,13.40
2018,06,02,19,49,13.40
2018,06,02,19,50,13.40
2018,06,02,19,51,13.40
2018,06,02,19,52,13.40
2018,06,02,19,53,13.40
2018,06,02,19,54,13.40
2018,06,02,19,55,13.40
2018,06,02,19,56,13.40
2018,06,02,19,57,13.40
2018,06,02,19,58,13.40
2018,06,02,19,59,13.40
2018,06,02,20,00,13.40
2018,06,02,20,01,13.40
2018,06,02,20,02,13.40
2018,06,02,20,03,13.40
2018,06,02,20,04,13.40
2018,06,02,20,05,13.40
2018,06,02,20,06,13.40
2018,06,02,20,07,13.40
2018,06,02,20,08,13.40
2018,06,02,20,09,13.40
2018,06,02,20,10,13.40
2018,06,02,20,11,13.40
2018,06,02,20,12,13.40
